QPF
0.00 0.00 0.00 0.00 0.00 0.00 0.01 0.01 0.00 0.00 0.00 0.01 0.01 0.00 0.00 0.03 0.02 0.01 0.01 0.01 0.01 0.01 0.01 0.03 0.03 0.02 0.02 0.03 0.03 0.03 0.03 0.03 0.03 0.03 0.04 0.02 0.02 0.01 0.00 0.00 0.00 0.01 0.02 0.02
0.00 0.00 0.00 0.00 0.00 0.00 0.01 0.01 0.00 0.00 0.01 0.01 0.01 0.00 0.00 0.01 0.03 0.02 0.01 0.02 0.01 0.01 0.01 0.02 0.02 0.03 0.03 0.04 0.04 0.03 0.02 0.02 0.02 0.02 0.01 0.01 0.02 0.01 0.01 0.00 0.01 0.01 0.02 0.02
0.00 0.00 0.00 0.00 0.00 0.00 0.00 0.00 0.00 0.00 0.01 0.01 0.01 0.00 0.00 0.02 0.04 0.06 0.04 0.02 0.01 0.01 0.01 0.01 0.01 0.02 0.03 0.03 0.04 0.03 0.02 0.03 0.04 0.02 0.02 0.02 0.02 0.02 0.01 0.02 0.02 0.03 0.03 0.03
0.00 0.00 0.01 0.00 0.00 0.00 0.00 0.00 0.00 0.00 0.01 0.01 0.00 0.00 0.00 0.00 0.01 0.03 0.06 0.03 0.03 0.03 0.03 0.02 0.01 0.02 0.03 0.05 0.05 0.04 0.03 0.03 0.03 0.02 0.02 0.04 0.04 0.03 0.02 0.02 0.02 0.03 0.03 0.03
0.00 0.01 0.01 0.00 0.00 0.00 0.00 0.00 0.01 0.01 0.02 0.01 0.00 0.00 0.00 0.00 0.01 0.01 0.03 0.04 0.05 0.04 0.02 0.02 0.03 0.05 0.06 0.05 0.04 0.05 0.04 0.03 0.04 0.03 0.02 0.03 0.03 0.03 0.04 0.04 0.03 0.03 0.03 0.03
0.01 0.01 0.01 0.01 0.00 0.00 0.00 0.01 0.01 0.01 0.02 0.01 0.00 0.00 0.00 0.00 0.01 0.02 0.07 0.12 0.06 0.03 0.03 0.03 0.04 0.04 0.03 0.03 0.03 0.05 0.06 0.04 0.05 0.04 0.02 0.03 0.02 0.01 0.02 0.03 0.04 0.04 0.04 0.04
0.01 0.01 0.01 0.00 0.00 0.00 0.01 0.02 0.01 0.01 0.01 0.01 0.01 0.01 0.01 0.01 0.01 0.01 0.03 0.04 0.03 0.02 0.03 0.02 0.02 0.03 0.03 0.04 0.03 0.03 0.04 0.03 0.07 0.05 0.02 0.03 0.03 0.01 0.02 0.03 0.04 0.05 0.05 0.04
0.01 0.02 0.02 0.01 0.01 0.01 0.01 0.01 0.01 0.01 0.01 0.02 0.02 0.01 0.01 0.01 0.01 0.00 0.00 0.02 0.02 0.02 0.02 0.02 0.03 0.04 0.03 0.03 0.03 0.02 0.02 0.02 0.02 0.02 0.01 0.01 0.02 0.02 0.02 0.02 0.03 0.04 0.05 0.06
0.01 0.02 0.02 0.02 0.03 0.03 0.03 0.02 0.02 0.02 0.02 0.02 0.01 0.01 0.01 0.01 0.02 0.01 0.01 0.01 0.01 0.01 0.01 0.01 0.02 0.04 0.04 0.02 0.02 0.02 0.02 0.02 0.02 0.02 0.02 0.01 0.01 0.02 0.02 0.02 0.02 0.02 0.03 0.04
0.02 0.02 0.03 0.02 0.02 0.02 0.03 0.03 0.03 0.03 0.02 0.02 0.02 0.01 0.01 0.02 0.02 0.02 0.01 0.01 0.01 0.01 0.01 0.01 0.02 0.04 0.07 0.07 0.05 0.03 0.03 0.02 0.02 0.02 0.02 0.01 0.01 0.01 0.02 0.02 0.02 0.03 0.04 0.04
0.01 0.01 0.01 0.01 0.01 0.01 0.01 0.01 0.02 0.03 0.03 0.04 0.04 0.03 0.02 0.02 0.02 0.02 0.02 0.02 0.02 0.02 0.02 0.01 0.02 0.03 0.05 0.07 0.07 0.05 0.03 0.02 0.02 0.02 0.01 0.01 0.01 0.01 0.01 0.01 0.02 0.03 0.04 0.04
0.02 0.01 0.01 0.01 0.01 0.01 0.01 0.01 0.02 0.03 0.03 0.04 0.04 0.04 0.04 0.04 0.04 0.04 0.03 0.03 0.04 0.04 0.04 0.03 0.03 0.02 0.02 0.04 0.04 0.04 0.03 0.02 0.02 0.01 0.01 0.01 0.00 0.01 0.01 0.01 0.02 0.02 0.03 0.03
0.04 0.03 0.02 0.02 0.01 0.01 0.02 0.03 0.03 0.04 0.04 0.04 0.04 0.04 0.05 0.05 0.06 0.06 0.07 0.07 0.06 0.06 0.06 0.05 0.04 0.03 0.02 0.03 0.04 0.04 0.03 0.02 0.01 0.01 0.01 0.01 0.01 0.02 0.02 0.02 0.02 0.03 0.04 0.05
0.05 0.06 0.06 0.04 0.03 0.02 0.02 0.03 0.06 0.09 0.06 0.03 0.03 0.04 0.05 0.06 0.08 0.10 0.11 0.09 0.08 0.07 0.06 0.05 0.04 0.03 0.03 0.03 0.03 0.03 0.04 0.03 0.02 0.02 0.02 0.03 0.03 0.03 0.03 0.03 0.03 0.04 0.05 0.06
0.05 0.07 0.11 0.11 0.08 0.06 0.03 0.02 0.03 0.06 0.08 0.05 0.03 0.02 0.03 0.05 0.07 0.08 0.10 0.09 0.09 0.09 0.07 0.05 0.03 0.03 0.04 0.05 0.04 0.03 0.04 0.03 0.03 0.03 0.03 0.04 0.04 0.03 0.04 0.04 0.05 0.04 0.04 0.05
0.04 0.04 0.06 0.11 0.14 0.14 0.11 0.07 0.05 0.06 0.08 0.10 0.10 0.07 0.04 0.06 0.10 0.11 0.09 0.07 0.07 0.07 0.07 0.05 0.03 0.03 0.04 0.06 0.05 0.04 0.04 0.03 0.03 0.03 0.02 0.02 0.02 0.02 0.02 0.02 0.03 0.03 0.02 0.03
0.04 0.03 0.03 0.05 0.09 0.12 0.15 0.16 0.12 0.08 0.08 0.11 0.15 0.15 0.11 0.09 0.12 0.16 0.13 0.09 0.09 0.09 0.08 0.07 0.05 0.05 0.05 0.05 0.04 0.04 0.03 0.03 0.03 0.02 0.02 0.02 0.02 0.02 0.02 0.02 0.02 0.02 0.02 0.03
0.04 0.03 0.03 0.04 0.05 0.08 0.12 0.17 0.18 0.14 0.11 0.10 0.12 0.11 0.09 0.10 0.13 0.15 0.15 0.15 0.14 0.12 0.11 0.10 0.08 0.08 0.06 0.06 0.05 0.05 0.04 0.03 0.02 0.02 0.01 0.01 0.01 0.02 0.02 0.02 0.02 0.02 0.02 0.01
0.05 0.05 0.06 0.07 0.06 0.07 0.10 0.14 0.15 0.14 0.12 0.10 0.10 0.09 0.09 0.10 0.12 0.14 0.14 0.14 0.14 0.13 0.12 0.11 0.11 0.08 0.07 0.06 0.07 0.06 0.05 0.04 0.03 0.02 0.02 0.02 0.02 0.02 0.02 0.02 0.02 0.02 0.02 0.01
0.05 0.05 0.04 0.04 0.04 0.03 0.04 0.06 0.08 0.07 0.07 0.09 0.09 0.08 0.08 0.08 0.10 0.09 0.08 0.10 0.11 0.11 0.13 0.12 0.10 0.10 0.07 0.06 0.06 0.06 0.05 0.05 0.04 0.04 0.03 0.02 0.02 0.03 0.04 0.03 0.03 0.02 0.02 0.02
0.06 0.05 0.04 0.04 0.03 0.02 0.02 0.03 0.03 0.05 0.09 0.07 0.05 0.06 0.08 0.08 0.09 0.08 0.06 0.06 0.06 0.08 0.12 0.13 0.09 0.08 0.07 0.05 0.05 0.07 0.06 0.05 0.05 0.04 0.04 0.03 0.03 0.03 0.04 0.04 0.03 0.02 0.02 0.01
0.06 0.05 0.05 0.06 0.05 0.04 0.04 0.04 0.04 0.05 0.07 0.07 0.05 0.05 0.05 0.06 0.06 0.05 0.04 0.04 0.05 0.06 0.08 0.12 0.11 0.07 0.06 0.06 0.07 0.07 0.07 0.06 0.06 0.05 0.04 0.04 0.03 0.03 0.04 0.03 0.03 0.03 0.03 0.03
0.06 0.06 0.06 0.07 0.06 0.06 0.06 0.06 0.07 0.07 0.07 0.06 0.05 0.04 0.04 0.03 0.03 0.03 0.03 0.03 0.05 0.06 0.07 0.08 0.09 0.11 0.10 0.08 0.07 0.07 0.06 0.05 0.04 0.04 0.04 0.04 0.04 0.04 0.03 0.03 0.03 0.03 0.04 0.05
0.09 0.11 0.08 0.07 0.06 0.06 0.08 0.08 0.08 0.07 0.06 0.04 0.03 0.03 0.03 0.03 0.02 0.01 0.01 0.02 0.03 0.04 0.05 0.05 0.04 0.05 0.07 0.09 0.08 0.06 0.04 0.04 0.03 0.03 0.03 0.03 0.03 0.03 0.04 0.04 0.03 0.02 0.01 0.02
0.08 0.08 0.06 0.05 0.04 0.04 0.04 0.05 0.05 0.04 0.03 0.03 0.02 0.02 0.02 0.03 0.02 0.02 0.01 0.02 0.03 0.04 0.04 0.03 0.04 0.03 0.03 0.03 0.03 0.03 0.03 0.03 0.03 0.04 0.03 0.03 0.02 0.02 0.03 0.03 0.02 0.01 0.01 0.01
0.05 0.05 0.03 0.03 0.03 0.03 0.03 0.02 0.02 0.02 0.02 0.02 0.01 0.01 0.01 0.02 0.02 0.03 0.02 0.02 0.02 0.02 0.02 0.02 0.03 0.03 0.02 0.02 0.02 0.02 0.03 0.03 0.03 0.04 0.03 0.02 0.02 0.02 0.02 0.02 0.01 0.01 0.01 0.01
0.03 0.04 0.03 0.02 0.03 0.03 0.03 0.03 0.03 0.02 0.02 0.02 0.01 0.01 0.01 0.01 0.02 0.03 0.03 0.02 0.02 0.02 0.02 0.02 0.02 0.02 0.02 0.02 0.02 0.03 0.03 0.04 0.04 0.03 0.02 0.01 0.01 0.02 0.02 0.02 0.01 0.01 0.01 0.01
MSLP
1008.82 1008.81 1008.87 1009.00 1009.16 1009.30 1009.36 1009.27 1009.00 1008.53 1007.90 1007.14 1006.36 1005.62 1005.00 1004.57 1004.34 1004.31 1004.44 1004.68 1004.98 1005.28 1005.56 1005.80 1006.02 1006.25 1006.51 1006.83 1007.22 1007.69 1008.20 1008.73 1009.25 1009.72 1010.13 1010.45 1010.72 1010.93 1011.12 1011.32 1011.53 1011.76 1012.00 1012.25
1009.41 1009.29 1009.16 1009.02 1008.86 1008.68 1008.44 1008.11 1007.70 1007.19 1006.61 1005.99 1005.39 1004.86 1004.44 1004.16 1004.02 1004.02 1004.13 1004.32 1004.54 1004.78 1005.02 1005.26 1005.52 1005.82 1006.18 1006.61 1007.10 1007.65 1008.23 1008.80 1009.33 1009.79 1010.17 1010.48 1010.71 1010.90 1011.07 1011.24 1011.44 1011.65 1011.89 1012.13
1010.04 1009.84 1009.54 1009.17 1008.75 1008.27 1007.76 1007.20 1006.62 1006.02 1005.43 1004.87 1004.37 1003.96 1003.66 1003.47 1003.39 1003.41 1003.51 1003.66 1003.85 1004.07 1004.32 1004.61 1004.95 1005.35 1005.82 1006.36 1006.97 1007.60 1008.24 1008.84 1009.38 1009.84 1010.20 1010.48 1010.69 1010.86 1011.01 1011.16 1011.34 1011.53 1011.75 1011.97
1010.67 1010.40 1009.98 1009.43 1008.78 1008.07 1007.31 1006.54 1005.78 1005.06 1004.39 1003.80 1003.31 1002.94 1002.67 1002.51 1002.46 1002.49 1002.58 1002.74 1002.94 1003.20 1003.50 1003.87 1004.31 1004.83 1005.42 1006.07 1006.77 1007.48 1008.16 1008.78 1009.33 1009.78 1010.13 1010.40 1010.59 1010.75 1010.89 1011.03 1011.19 1011.37 1011.57 1011.76
1011.24 1010.91 1010.40 1009.73 1008.92 1008.03 1007.07 1006.11 1005.16 1004.28 1003.48 1002.80 1002.24 1001.82 1001.53 1001.36 1001.30 1001.33 1001.45 1001.64 1001.89 1002.22 1002.61 1003.08 1003.64 1004.27 1004.96 1005.71 1006.47 1007.22 1007.93 1008.56 1009.11 1009.55 1009.90 1010.17 1010.37 1010.54 1010.69 1010.84 1011.00 1011.17 1011.35 1011.51
1011.70 1011.32 1010.76 1010.01 1009.11 1008.09 1006.99 1005.86 1004.75 1003.70 1002.75 1001.92 1001.24 1000.72 1000.36 1000.14 1000.05 1000.09 1000.23 1000.47 1000.80 1001.22 1001.72 1002.30 1002.96 1003.68 1004.45 1005.25 1006.04 1006.81 1007.51 1008.14 1008.68 1009.13 1009.49 1009.78 1010.02 1010.21 1010.40 1010.57 1010.75 1010.92 1011.08 1011.23
1012.00 1011.60 1011.02 1010.25 1009.31 1008.22 1007.03 1005.79 1004.54 1003.33 1002.22 1001.23 1000.41 999.76 999.29 999.00 998.88 998.92 999.09 999.39 999.80 1000.31 1000.91 1001.58 1002.31 1003.09 1003.89 1004.70 1005.49 1006.24 1006.92 1007.54 1008.07 1008.53 1008.92 1009.25 1009.53 1009.79 1010.02 1010.24 1010.44 1010.62 1010.78 1010.91
1012.13 1011.73 1011.17 1010.42 1009.49 1008.40 1007.18 1005.88 1004.53 1003.21 1001.95 1000.82 999.85 999.07 998.50 998.13 997.97 998.00 998.20 998.55 999.03 999.61 1000.27 1000.99 1001.75 1002.54 1003.33 1004.11 1004.86 1005.56 1006.21 1006.80 1007.33 1007.80 1008.22 1008.61 1008.95 1009.28 1009.57 1009.84 1010.07 1010.27 1010.43 1010.55
1012.08 1011.71 1011.20 1010.52 1009.66 1008.62 1007.43 1006.12 1004.74 1003.34 1001.99 1000.74 999.66 998.77 998.10 997.67 997.46 997.48 997.69 998.06 998.58 999.19 999.87 1000.60 1001.35 1002.10 1002.84 1003.54 1004.22 1004.85 1005.44 1006.00 1006.52 1007.01 1007.48 1007.92 1008.33 1008.72 1009.08 1009.39 1009.65 1009.87 1010.03 1010.14
1011.83 1011.53 1011.10 1010.53 1009.78 1008.85 1007.74 1006.48 1005.12 1003.71 1002.32 1001.01 999.86 998.89 998.16 997.67 997.44 997.43 997.63 998.01 998.52 999.13 999.79 1000.47 1001.16 1001.83 1002.47 1003.07 1003.65 1004.20 1004.73 1005.25 1005.76 1006.26 1006.76 1007.25 1007.72 1008.15 1008.55 1008.89 1009.18 1009.40 1009.55 1009.66
1011.38 1011.16 1010.85 1010.41 1009.80 1009.01 1008.03 1006.88 1005.60 1004.24 1002.88 1001.58 1000.41 999.43 998.67 998.15 997.89 997.87 998.04 998.39 998.87 999.42 1000.02 1000.62 1001.20 1001.76 1002.28 1002.77 1003.23 1003.69 1004.15 1004.63 1005.12 1005.62 1006.13 1006.65 1007.14 1007.60 1008.01 1008.36 1008.63 1008.84 1008.98 1009.07
1010.69 1010.56 1010.37 1010.08 1009.63 1009.00 1008.19 1007.19 1006.05 1004.81 1003.54 1002.32 1001.20 1000.25 999.51 999.01 998.74 998.69 998.84 999.14 999.56 1000.03 1000.53 1001.01 1001.47 1001.90 1002.29 1002.65 1003.01 1003.38 1003.77 1004.19 1004.64 1005.13 1005.63 1006.13 1006.62 1007.06 1007.45 1007.77 1008.02 1008.20 1008.31 1008.39
1009.74 1009.70 1009.63 1009.47 1009.18 1008.73 1008.09 1007.27 1006.31 1005.24 1004.13 1003.04 1002.04 1001.18 1000.51 1000.04 999.79 999.74 999.86 1000.11 1000.44 1000.82 1001.20 1001.56 1001.89 1002.19 1002.45 1002.70 1002.96 1003.24 1003.56 1003.92 1004.33 1004.77 1005.24 1005.70 1006.14 1006.54 1006.87 1007.14 1007.34 1007.47 1007.56 1007.61
1008.52 1008.55 1008.57 1008.53 1008.38 1008.08 1007.63 1007.01 1006.25 1005.38 1004.47 1003.56 1002.73 1002.01 1001.45 1001.06 1000.85 1000.81 1000.90 1001.10 1001.36 1001.64 1001.91 1002.15 1002.36 1002.54 1002.69 1002.85 1003.02 1003.22 1003.48 1003.78 1004.13 1004.52 1004.92 1005.32 1005.69 1006.01 1006.27 1006.47 1006.60 1006.68 1006.73 1006.77
1007.09 1007.14 1007.21 1007.24 1007.19 1007.04 1006.74 1006.32 1005.77 1005.13 1004.44 1003.76 1003.12 1002.57 1002.15 1001.87 1001.73 1001.71 1001.79 1001.94 1002.13 1002.32 1002.49 1002.63 1002.74 1002.82 1002.90 1002.98 1003.08 1003.23 1003.43 1003.68 1003.98 1004.30 1004.63 1004.95 1005.23 1005.46 1005.64 1005.75 1005.82 1005.86 1005.88 1005.90
1005.51 1005.54 1005.61 1005.67 1005.69 1005.63 1005.48 1005.22 1004.88 1004.46 1004.00 1003.54 1003.12 1002.77 1002.51 1002.34 1002.28 1002.30 1002.38 1002.50 1002.63 1002.74 1002.83 1002.89 1002.93 1002.94 1002.96 1002.99 1003.06 1003.17 1003.34 1003.54 1003.79 1004.05 1004.30 1004.54 1004.73 1004.88 1004.97 1005.01 1005.02 1005.02 1005.02 1005.04
1003.93 1003.90 1003.92 1003.96 1004.00 1004.00 1003.94 1003.83 1003.65 1003.44 1003.20 1002.96 1002.75 1002.58 1002.47 1002.43 1002.45 1002.50 1002.59 1002.68 1002.77 1002.83 1002.86 1002.86 1002.85 1002.83 1002.81 1002.83 1002.88 1002.98 1003.12 1003.30 1003.50 1003.71 1003.90 1004.06 1004.18 1004.25 1004.28 1004.26 1004.23 1004.20 1004.19 1004.21
1002.50 1002.37 1002.31 1002.30 1002.31 1002.33 1002.33 1002.31 1002.27 1002.22 1002.16 1002.11 1002.08 1002.08 1002.11 1002.17 1002.26 1002.35 1002.44 1002.52 1002.57 1002.59 1002.58 1002.54 1002.50 1002.46 1002.45 1002.46 1002.52 1002.62 1002.76 1002.93 1003.10 1003.27 1003.42 1003.52 1003.58 1003.60 1003.57 1003.52 1003.45 1003.40 1003.39 1003.42
1001.38 1001.14 1000.98 1000.89 1000.84 1000.83 1000.85 1000.89 1000.93 1000.99 1001.06 1001.15 1001.26 1001.39 1001.53 1001.67 1001.80 1001.92 1002.01 1002.07 1002.09 1002.08 1002.04 1001.99 1001.94 1001.90 1001.90 1001.93 1002.01 1002.13 1002.28 1002.44 1002.61 1002.76 1002.87 1002.94 1002.95 1002.93 1002.87 1002.79 1002.70 1002.64 1002.62 1002.65
1000.69 1000.34 1000.07 999.88 999.76 999.70 999.70 999.74 999.82 999.94 1000.09 1000.27 1000.47 1000.68 1000.88 1001.07 1001.23 1001.36 1001.44 1001.48 1001.48 1001.44 1001.39 1001.32 1001.28 1001.25 1001.27 1001.32 1001.43 1001.56 1001.73 1001.90 1002.06 1002.19 1002.28 1002.32 1002.31 1002.26 1002.17 1002.07 1001.98 1001.90 1001.87 1001.89
1000.45 1000.01 999.65 999.36 999.15 999.02 998.97 998.98 999.06 999.19 999.37 999.58 999.82 1000.06 1000.29 1000.49 1000.66 1000.78 1000.85 1000.87 1000.85 1000.80 1000.73 1000.67 1000.62 1000.61 1000.65 1000.73 1000.85 1001.00 1001.17 1001.34 1001.50 1001.62 1001.69 1001.71 1001.67 1001.60 1001.49 1001.37 1001.26 1001.17 1001.12 1001.11
1000.60 1000.10 999.66 999.29 999.00 998.80 998.67 998.63 998.66 998.77 998.93 999.14 999.37 999.61 999.83 1000.03 1000.18 1000.29 1000.34 1000.34 1000.30 1000.24 1000.17 1000.11 1000.07 1000.07 1000.11 1000.20 1000.33 1000.49 1000.65 1000.81 1000.95 1001.05 1001.10 1001.09 1001.04 1000.94 1000.82 1000.68 1000.55 1000.43 1000.36 1000.32
1001.02 1000.49 1000.00 999.57 999.21 998.92 998.72 998.61 998.58 998.63 998.74 998.91 999.11 999.32 999.52 999.69 999.83 999.91 999.95 999.94 999.89 999.82 999.75 999.69 999.65 999.65 999.70 999.78 999.90 1000.04 1000.18 1000.31 1000.42 1000.48 1000.50 1000.47 1000.39 1000.27 1000.13 999.97 999.82 999.69 999.59 999.52
1001.54 1001.00 1000.49 1000.02 999.60 999.25 998.98 998.79 998.69 998.67 998.72 998.83 998.98 999.15 999.31 999.46 999.57 999.63 999.66 999.64 999.59 999.52 999.45 999.39 999.35 999.34 999.37 999.43 999.52 999.62 999.72 999.80 999.87 999.89 999.87 999.80 999.70 999.56 999.40 999.24 999.08 998.93 998.82 998.73
1002.00 1001.48 1000.97 1000.47 1000.02 999.61 999.28 999.02 998.85 998.76 998.75 998.80 998.89 999.01 999.14 999.25 999.34 999.40 999.42 999.40 999.35 999.29 999.22 999.15 999.10 999.07 999.07 999.09 999.13 999.17 999.21 999.24 999.25 999.22 999.16 999.07 998.94 998.80 998.63 998.47 998.32 998.18 998.06 997.97
1002.27 1001.79 1001.29 1000.79 1000.31 999.87 999.49 999.19 998.95 998.81 998.73 998.72 998.77 998.85 998.94 999.03 999.10 999.15 999.17 999.15 999.11 999.05 998.97 998.89 998.82 998.76 998.72 998.69 998.66 998.64 998.62 998.58 998.53 998.46 998.36 998.24 998.11 997.97 997.82 997.68 997.55 997.44 997.35 997.27
1002.29 1001.85 1001.37 1000.89 1000.40 999.95 999.55 999.21 998.93 998.74 998.62 998.56 998.57 998.61 998.67 998.74 998.80 998.84 998.85 998.84 998.80 998.73 998.65 998.56 998.46 998.36 998.27 998.18 998.09 998.00 997.91 997.82 997.71 997.60 997.48 997.35 997.22 997.10 996.99 996.89 996.80 996.73 996.68 996.64
Thickness
5760 5772 5779 5779 5782 5785 5776 5768 5760 5769 5777 5792 5803 5809 5813 5815 5815 5813 5812 5811 5812 5810 5809 5807 5805 5803 5801 5798 5795 5791 5785 5781 5778 5777 5773 5770 5767 5765 5763 5761 5759 5756 5754 5751
5750 5767 5772 5771 5778 5781 5780 5778 5776 5778 5781 5800 5807 5810 5808 5808 5809 5807 5807 5807 5809 5808 5806 5804 5802 5799 5797 5793 5791 5788 5782 5778 5775 5773 5769 5767 5764 5762 5759 5757 5755 5753 5750 5747
5725 5747 5755 5746 5766 5773 5774 5779 5777 5768 5778 5794 5795 5799 5800 5803 5805 5804 5804 5804 5803 5803 5803 5802 5800 5797 5792 5790 5786 5782 5778 5775 5771 5768 5765 5763 5761 5757 5754 5752 5751 5748 5746 5744
5712 5726 5717 5745 5775 5780 5775 5776 5780 5779 5783 5789 5792 5798 5802 5804 5802 5801 5801 5800 5799 5798 5798 5797 5797 5794 5791 5786 5780 5776 5773 5770 5767 5764 5761 5759 5756 5753 5750 5749 5746 5744 5742 5740
5695 5700 5716 5744 5766 5769 5762 5757 5773 5774 5777 5783 5789 5789 5789 5798 5801 5801 5800 5799 5797 5795 5794 5793 5790 5788 5783 5779 5775 5771 5768 5765 5763 5761 5757 5754 5751 5748 5747 5744 5742 5740 5738 5736
5690 5693 5697 5727 5758 5772 5763 5741 5765 5769 5770 5773 5776 5761 5768 5787 5793 5795 5797 5796 5793 5792 5790 5787 5785 5783 5776 5772 5770 5767 5765 5763 5760 5758 5753 5750 5747 5745 5743 5740 5738 5736 5733 5731
5682 5685 5700 5732 5753 5758 5728 5730 5757 5763 5765 5767 5763 5764 5773 5781 5785 5787 5789 5789 5787 5785 5782 5780 5779 5776 5770 5766 5764 5764 5762 5759 5756 5752 5749 5746 5744 5741 5738 5735 5732 5728 5727 5725
5673 5673 5688 5729 5737 5728 5727 5743 5751 5755 5759 5761 5763 5767 5769 5772 5775 5777 5778 5779 5778 5775 5773 5773 5772 5768 5763 5760 5761 5759 5756 5752 5750 5747 5745 5743 5737 5735 5732 5729 5725 5722 5720 5718
5678 5684 5705 5719 5724 5729 5733 5735 5741 5744 5749 5752 5753 5756 5759 5761 5764 5767 5769 5769 5769 5767 5765 5764 5763 5761 5756 5754 5754 5752 5748 5745 5743 5741 5738 5736 5733 5729 5726 5723 5720 5716 5714 5711
5676 5688 5700 5710 5717 5723 5729 5731 5735 5738 5741 5743 5743 5747 5749 5751 5753 5755 5758 5759 5759 5757 5754 5753 5754 5753 5751 5749 5747 5743 5739 5738 5736 5733 5731 5729 5727 5725 5721 5718 5715 5712 5708 5706
5668 5680 5690 5700 5706 5712 5718 5724 5726 5728 5733 5735 5736 5736 5739 5740 5742 5744 5746 5748 5749 5747 5745 5744 5744 5743 5743 5741 5739 5734 5731 5730 5728 5727 5725 5722 5720 5717 5716 5714 5712 5708 5706 5703
5660 5673 5676 5685 5697 5705 5708 5711 5715 5718 5720 5726 5729 5729 5730 5730 5731 5732 5734 5737 5738 5738 5736 5736 5735 5733 5733 5732 5730 5726 5723 5721 5720 5719 5717 5714 5711 5708 5707 5707 5705 5704 5702 5699
5667 5674 5676 5683 5692 5697 5699 5703 5708 5710 5711 5713 5717 5720 5721 5720 5722 5723 5724 5724 5726 5727 5727 5726 5725 5724 5724 5723 5721 5718 5716 5714 5713 5712 5709 5706 5703 5700 5697 5696 5696 5695 5694 5692
5666 5668 5669 5675 5680 5687 5691 5695 5699 5701 5703 5705 5706 5709 5710 5711 5712 5713 5714 5715 5716 5716 5716 5715 5715 5715 5716 5715 5712 5710 5708 5707 5706 5704 5701 5699 5696 5694 5691 5688 5686 5685 5685 5683
5659 5662 5664 5669 5674 5678 5681 5684 5686 5688 5690 5693 5694 5697 5699 5699 5701 5703 5705 5706 5706 5706 5706 5706 5705 5706 5707 5706 5703 5701 5700 5698 5698 5696 5694 5692 5690 5687 5684 5682 5679 5677 5675 5673
5650 5655 5659 5662 5665 5667 5670 5673 5674 5677 5680 5682 5682 5685 5689 5691 5692 5694 5695 5697 5695 5695 5697 5696 5696 5699 5700 5698 5695 5694 5692 5692 5690 5688 5686 5684 5682 5679 5677 5674 5672 5669 5667 5665
5640 5644 5648 5651 5656 5659 5662 5664 5666 5669 5672 5673 5675 5677 5679 5680 5681 5681 5685 5688 5688 5688 5688 5688 5688 5690 5691 5690 5689 5687 5685 5684 5683 5680 5678 5677 5676 5673 5670 5667 5665 5663 5661 5660
5640 5643 5647 5649 5652 5654 5657 5659 5661 5663 5664 5666 5668 5669 5669 5670 5670 5671 5674 5677 5677 5677 5679 5681 5681 5681 5682 5683 5682 5681 5678 5676 5674 5672 5671 5670 5668 5666 5663 5660 5659 5657 5655 5652
5638 5639 5642 5646 5649 5650 5651 5651 5653 5654 5656 5658 5659 5659 5661 5663 5664 5664 5665 5667 5667 5667 5669 5672 5672 5672 5672 5674 5673 5671 5669 5668 5666 5664 5663 5662 5660 5658 5656 5654 5652 5650 5648 5645
5632 5635 5637 5639 5643 5643 5644 5646 5647 5648 5650 5651 5651 5651 5652 5655 5657 5656 5656 5657 5660 5662 5663 5663 5662 5661 5662 5663 5663 5661 5660 5659 5657 5656 5654 5653 5651 5650 5648 5647 5645 5642 5640 5638
5625 5628 5629 5631 5634 5637 5639 5641 5642 5642 5643 5644 5644 5643 5644 5647 5648 5648 5647 5647 5651 5654 5654 5654 5653 5652 5652 5653 5653 5652 5651 5649 5648 5647 5646 5644 5643 5642 5640 5639 5637 5635 5633 5631
5618 5620 5622 5626 5627 5629 5632 5634 5635 5635 5636 5637 5637 5638 5639 5639 5640 5640 5641 5642 5644 5645 5645 5643 5643 5643 5644 5644 5643 5643 5641 5640 5640 5639 5637 5636 5635 5634 5633 5632 5629 5628 5625 5623
5613 5615 5617 5619 5621 5622 5625 5627 5628 5629 5629 5630 5631 5632 5632 5633 5633 5632 5632 5635 5637 5637 5636 5635 5635 5635 5635 5635 5634 5634 5633 5632 5631 5630 5630 5630 5629 5627 5626 5625 5622 5620 5617 5615
5608 5609 5611 5613 5616 5616 5616 5619 5621 5623 5624 5625 5626 5627 5627 5626 5626 5628 5629 5630 5631 5631 5629 5628 5628 5628 5628 5627 5626 5626 5625 5625 5623 5623 5622 5621 5621 5619 5618 5616 5614 5612 5610 5608
5603 5604 5606 5607 5609 5609 5611 5613 5615 5616 5617 5618 5619 5621 5622 5622 5621 5623 5623 5624 5624 5623 5623 5622 5621 5620 5620 5620 5619 5619 5618 5618 5617 5615 5614 5613 5612 5611 5609 5608 5606 5604 5602 5599
5597 5598 5600 5603 5604 5604 5606 5607 5608 5609 5611 5611 5612 5614 5615 5616 5617 5617 5617 5617 5618 5617 5616 5616 5615 5614 5613 5613 5613 5612 5612 5610 5609 5608 5607 5605 5604 5602 5601 5600 5598 5596 5593 5590
5593 5594 5595 5596 5597 5599 5600 5601 5602 5603 5604 5605 5605 5606 5607 5608 5609 5609 5610 5610 5610 5610 5610 5609 5608 5607 5607 5606 5606 5606 5605 5604 5602 5601 5599 5598 5596 5595 5593 5592 5590 5587 5585 5583